TimeCDT,TemperatureF,Dew PointF,Humidity,Sea Level PressureIn,VisibilityMPH,Wind Direction,Wind SpeedMPH,Gust SpeedMPH,PrecipitationIn,Events,Conditions,WindDirDegrees,DateUTC
12:53 AM,36.0,28.9,76,30.04,10.0,North,3.5,-,N/A,,Clear,360,2012-10-31 05:53:00
1:53 AM,35.1,28.9,78,30.04,10.0,North,3.5,-,N/A,,Clear,350,2012-10-31 06:53:00
2:53 AM,35.1,28.9,78,30.04,10.0,NW,3.5,-,N/A,,Clear,310,2012-10-31 07:53:00
3:53 AM,34.0,28.9,82,30.04,10.0,Calm,Calm,-,N/A,,Clear,0,2012-10-31 08:53:00
4:53 AM,34.0,28.0,79,30.04,10.0,WNW,4.6,-,N/A,,Clear,300,2012-10-31 09:53:00
5:53 AM,33.1,28.0,82,30.05,10.0,Calm,Calm,-,N/A,,Clear,0,2012-10-31 10:53:00
6:53 AM,32.0,28.0,85,30.07,8.0,NNW,3.5,-,N/A,,Mostly Cloudy,330,2012-10-31 11:53:00
7:53 AM,33.1,28.0,82,30.08,10.0,Calm,Calm,-,N/A,,Scattered Clouds,0,2012-10-31 12:53:00
8:53 AM,36.0,30.0,79,30.10,10.0,Calm,Calm,-,N/A,,Partly Cloudy,0,2012-10-31 13:53:00
9:53 AM,44.1,32.0,63,30.10,10.0,Calm,Calm,-,N/A,,Clear,0,2012-10-31 14:53:00
10:53 AM,50.0,30.9,48,30.10,10.0,Calm,Calm,-,N/A,,Clear,0,2012-10-31 15:53:00
11:53 AM,53.1,28.9,40,30.11,10.0,Calm,Calm,-,N/A,,Clear,0,2012-10-31 16:53:00
12:53 PM,55.9,30.0,37,30.08,10.0,Calm,Calm,-,N/A,,Partly Cloudy,0,2012-10-31 17:53:00
1:53 PM,59.0,30.9,35,30.05,10.0,Calm,Calm,-,N/A,,Clear,0,2012-10-31 18:53:00
2:53 PM,61.0,30.0,31,30.03,10.0,Calm,Calm,-,N/A,,Clear,0,2012-10-31 19:53:00
3:53 PM,62.1,30.9,31,30.01,10.0,Calm,Calm,-,N/A,,Clear,0,2012-10-31 20:53:00
4:53 PM,62.1,32.0,32,30.00,10.0,Calm,Calm,-,N/A,,Clear,0,2012-10-31 21:53:00
5:53 PM,60.1,30.9,33,30.00,10.0,Calm,Calm,-,N/A,,Clear,0,2012-10-31 22:53:00
6:53 PM,54.0,34.0,47,30.02,10.0,Calm,Calm,-,N/A,,Clear,0,2012-10-31 23:53:00
7:53 PM,48.9,35.1,59,30.04,10.0,Calm,Calm,-,N/A,,Clear,0,2012-11-01 00:53:00
8:53 PM,46.9,35.1,63,30.03,10.0,Calm,Calm,-,N/A,,Clear,0,2012-11-01 01:53:00
9:53 PM,44.1,33.1,65,30.03,10.0,SSW,4.6,-,N/A,,Clear,200,2012-11-01 02:53:00
10:53 PM,42.1,33.1,70,30.02,10.0,SSW,3.5,-,N/A,,Clear,210,2012-11-01 03:53:00
11:53 PM,42.1,34.0,73,30.01,10.0,Calm,Calm,-,N/A,,Clear,0,2012-11-01 04:53:00